This is the latest recevied weather packets stored in our database for station/object W3EJE-13. If no packets are shown the sender has not sent any weather packets the latest 10 day(s).
| Time | Temp. | Humidity | Pressure | Rain* | Wind** | Luminosity | Snow |
|---|---|---|---|---|---|---|---|
| 1777754531 | 7.78° C | 68% | 1014.5 hPa | 0 mm | - | 186 W/m² | - |
| 1777754229 | 7.22° C | 68% | 1014.3 hPa | 0 mm | - | 177 W/m² | - |
| 1777753927 | 7.22° C | 68% | 1014.2 hPa | 0 mm | - | 247 W/m² | - |
| 1777753620 | 7.22° C | 70% | 1014.4 hPa | 0 mm | - | 148 W/m² | - |
| 1777753319 | 7.22° C | 68% | 1014.5 hPa | 0 mm | - | 134 W/m² | - |
| 1777753016 | 7.78° C | 67% | 1014.4 hPa | 0 mm | - | 216 W/m² | - |
| 1777752712 | 7.22° C | 68% | 1014.4 hPa | 0 mm | - | 230 W/m² | - |
| 1777752408 | 7.22° C | 66% | 1014.3 hPa | 0 mm | - | 199 W/m² | - |
| 1777752105 | 7.22° C | 66% | 1014.7 hPa | 0 mm | - | 269 W/m² | - |
| 1777751803 | 7.22° C | 70% | 1014.5 hPa | 0 mm | - | 239 W/m² | - |
| 1777751499 | 6.67° C | 68% | 1014.6 hPa | 0 mm | - | 121 W/m² | - |
| 1777751196 | 7.22° C | 68% | 1014.8 hPa | 0 mm | - | 85 W/m² | - |
| 1777750893 | 7.22° C | 68% | 1014.7 hPa | 0 mm | - | 181 W/m² | - |
| 1777750589 | 7.78° C | 69% | 1014.6 hPa | 0 mm | - | 192 W/m² | - |
| 1777750286 | 7.22° C | 70% | 1014.7 hPa | 0 mm | - | 148 W/m² | - |
| 1777749981 | 7.78° C | 68% | 1014.7 hPa | 0 mm | - | 213 W/m² | - |
| 1777749679 | 7.78° C | 69% | 1014.9 hPa | 0 mm | - | 280 W/m² | - |
| 1777749376 | 7.22° C | 72% | 1015.1 hPa | 0 mm | - | 299 W/m² | - |
| 1777749073 | 7.22° C | 70% | 1015.1 hPa | 0 mm | - | 246 W/m² | - |
| 1777748771 | 6.67° C | 69% | 1015 hPa | 0 mm | - | 234 W/m² | - |
| 1777748469 | 7.22° C | 70% | 1015.2 hPa | 0 mm | - | 210 W/m² | - |
| 1777748163 | 7.22° C | 70% | 1015.1 hPa | 0 mm | - | 177 W/m² | - |
| 1777747860 | 7.22° C | 68% | 1015.2 hPa | 0 mm | - | 222 W/m² | - |
| 1777747556 | 7.22° C | 67% | 1015.1 hPa | 0 mm | - | 276 W/m² | - |
| 1777747251 | 7.22° C | 68% | 1015.1 hPa | 0 mm | - | 231 W/m² | - |
* Rain latest hour (hover to see other rain measurements)
** Current wind speed in m/s (hover to see current wind gust speed)